Wind_Speed
25 25 24 24 24 24 24 24 24 24 24 24 24 23 23 22 22 22 21 21 20 20 19 18 18 19 19 20 21 21 21 19 18 16 14 13 13 12 12 12 12 12 12 12 12 12 11 10 11 9 7 3 7 15 24 29 28 27 27 27 27 28 28 27 26 25 25 25 26 28 31 33 36 37 38 36 33 31 29 28 29 30 29 27 25 23 22 22
26 27 27 27 27 27 27 27 27 26 26 26 26 26 26 25 25 24 23 23 22 22 21 20 19 19 19 20 21 22 22 20 19 18 16 14 12 11 11 11 11 11 11 11 11 11 10 9 9 9 9 7 5 8 18 27 30 31 30 30 30 30 31 29 29 29 28 27 28 29 31 34 36 38 39 37 34 31 29 29 29 29 29 28 25 23 22 21
29 29 29 29 30 30 30 30 29 29 29 29 29 29 28 28 28 27 26 25 24 24 23 22 21 20 20 20 22 23 23 21 20 20 19 16 13 11 11 10 11 11 11 10 9 9 9 9 9 8 8 8 7 6 9 19 27 31 31 32 33 33 33 31 31 30 28 29 30 31 32 34 35 36 37 35 32 29 27 27 28 27 27 25 24 23 22 20
32 32 32 32 33 33 33 32 32 32 32 32 31 31 31 31 30 29 29 28 26 25 24 23 22 21 20 20 22 24 25 22 20 21 20 18 16 13 12 11 11 11 11 10 9 9 9 9 8 8 8 8 9 9 8 9 18 27 32 34 34 33 32 30 29 29 29 30 32 33 33 34 33 33 32 29 27 26 25 25 24 24 23 22 22 22 22 21
35 35 35 36 36 36 35 35 35 34 34 34 33 33 33 32 32 31 30 29 28 26 25 24 23 21 20 20 21 24 26 23 20 22 21 19 19 16 14 12 12 12 11 12 10 9 9 9 9 9 9 9 9 10 10 9 9 15 25 31 33 33 31 29 29 30 31 31 32 33 34 33 31 30 27 25 23 22 22 21 21 21 21 21 21 22 22 22
37 37 38 38 38 38 37 37 37 36 36 35 35 34 34 33 33 32 31 30 29 27 26 25 24 23 21 20 21 23 26 25 22 22 21 20 22 20 17 14 13 13 13 13 13 11 10 10 10 10 10 10 10 10 10 11 10 9 13 22 28 31 31 31 31 32 31 30 30 30 30 30 28 25 23 21 21 19 19 19 19 19 20 20 21 21 22 21
38 38 38 39 39 39 38 38 38 37 37 36 36 35 35 34 34 33 32 32 31 29 28 27 26 25 24 22 22 22 26 27 23 21 22 22 23 22 20 17 15 14 14 15 15 14 12 10 10 11 11 10 10 11 11 12 12 11 10 13 21 27 29 30 32 32 31 30 29 27 26 25 24 22 20 20 19 17 18 18 17 19 19 19 20 20 20 19
39 39 40 40 40 40 40 40 39 39 38 38 37 37 36 36 35 35 34 34 33 32 31 30 29 28 27 26 25 24 25 28 25 22 24 24 23 23 22 21 18 16 16 16 17 16 15 13 12 12 12 11 11 11 12 13 13 13 12 10 13 20 25 27 28 30 29 27 27 26 24 23 21 20 18 18 18 16 16 17 16 17 18 18 18 17 17 15
42 42 42 42 43 43 42 42 42 42 41 41 40 40 39 39 38 38 37 37 36 36 35 34 33 32 31 30 29 28 27 29 27 26 27 26 24 24 25 23 22 20 18 17 18 18 18 16 14 13 14 14 12 12 12 12 13 13 12 11 10 13 19 23 26 28 27 26 25 24 22 21 19 18 16 16 16 15 14 15 14 15 15 16 16 15 13 12
44 44 44 44 45 45 45 45 44 44 44 44 44 43 43 42 42 41 41 40 40 40 39 38 37 36 35 34 32 31 31 31 30 29 29 28 26 26 26 25 24 23 21 19 18 19 20 19 17 15 15 15 15 13 12 12 12 12 12 12 11 10 13 17 21 24 26 25 23 20 19 19 18 17 15 14 14 13 12 13 13 13 13 14 14 13 13 12
44 44 45 45 45 45 45 46 46 46 46 45 45 45 45 44 44 44 43 43 43 43 43 42 41 41 39 38 36 35 36 34 33 32 32 32 30 28 28 28 26 25 24 22 20 19 20 20 20 17 16 16 16 15 13 12 12 12 13 12 12 11 10 10 12 15 17 19 19 19 19 18 17 16 15 13 12 11 11 12 12 13 13 13 13 13 12 11
45 46 46 47 47 47 47 47 47 47 47 47 47 47 46 46 45 45 45 44 44 44 44 44 44 44 43 42 41 39 39 38 36 35 34 35 34 31 30 30 29 27 26 25 22 21 20 21 22 21 18 17 17 17 15 13 12 12 12 12 12 12 11 8 8 9 10 13 16 17 17 17 17 16 15 13 11 11 10 11 12 13 13 13 12 12 11 10
48 48 49 49 49 50 50 50 50 50 50 50 50 50 49 49 48 47 47 46 46 45 45 45 45 45 44 44 44 42 42 41 40 39 38 37 37 36 33 32 32 31 29 28 26 23 21 22 23 23 22 19 18 19 17 15 14 13 12 12 12 12 11 9 6 7 7 9 11 12 13 15 16 15 14 13 12 12 11 10 11 12 12 12 12 11 10 9
50 50 50 51 51 51 51 51 52 52 52 51 51 51 51 51 50 50 49 49 48 48 47 47 47 47 46 46 46 44 43 43 42 42 41 40 40 39 37 35 33 33 33 31 29 26 24 23 23 24 24 22 21 20 19 17 16 14 13 12 12 11 11 10 6 5 6 6 7 8 10 12 13 13 13 12 12 12 11 11 11 12 12 12 12 11 10 10
50 50 50 50 50 50 50 50 50 50 50 50 50 50 50 49 49 49 49 49 49 48 48 48 48 49 48 47 48 47 46 45 44 44 43 43 42 42 41 39 36 36 36 34 32 30 27 25 24 24 25 24 24 22 21 20 17 15 14 12 11 10 9 9 7 4 4 5 6 7 9 10 12 12 11 12 12 12 12 12 13 13 14 13 12 12 11 9
48 48 48 47 47 47 47 47 46 46 46 46 45 45 45 45 44 44 44 44 44 44 45 46 46 47 47 48 49 50 49 47 47 47 45 45 44 44 44 43 40 38 38 37 35 33 30 28 27 25 24 25 26 24 23 23 19 16 15 13 11 9 8 7 6 4 4 4 5 6 8 10 11 10 11 11 12 12 13 14 14 14 14 13 12 12 10 8
44 44 43 42 42 42 42 42 41 41 40 40 39 39 39 39 38 38 38 38 38 38 39 40 41 41 42 45 46 47 50 49 48 49 48 47 46 46 46 45 44 42 40 40 38 37 34 32 30 27 25 26 27 26 27 25 20 17 17 15 13 10 8 7 5 4 4 3 3 5 7 9 11 12 12 12 13 13 14 15 14 14 14 12 11 12 11 11
41 40 39 38 38 38 38 38 37 37 37 36 36 35 35 36 34 34 35 34 34 34 34 35 36 35 37 40 39 41 45 47 47 48 50 50 49 48 47 47 47 45 44 42 41 40 38 35 33 30 27 27 29 29 30 27 20 19 20 18 15 13 10 8 7 5 4 4 4 3 4 6 9 12 13 14 14 14 15 15 13 13 13 12 13 13 13 14
38 37 36 36 36 36 37 37 37 37 37 36 36 35 34 35 33 33 34 32 32 32 32 33 33 32 34 36 36 35 38 40 42 44 48 49 50 50 50 49 48 48 47 45 44 43 41 38 35 33 32 31 31 32 31 28 23 21 22 20 18 15 13 10 9 8 5 5 5 4 3 3 5 9 10 12 14 15 14 13 12 12 13 14 15 14 14 16
36 36 36 36 36 36 37 38 37 38 38 37 37 36 35 35 32 32 34 32 31 32 31 32 33 32 32 35 35 34 34 35 36 38 42 46 49 50 51 51 50 50 49 48 46 45 43 40 37 37 38 35 33 33 32 29 25 23 24 24 21 18 16 14 12 11 8 6 6 6 5 3 2 4 6 9 12 12 11 11 12 14 15 16 17 16 16 18
36 36 36 36 36 36 37 38 37 38 38 37 37 36 36 36 32 31 32 32 30 29 30 31 32 32 32 33 35 33 34 35 33 33 36 40 44 47 50 51 52 52 51 49 48 47 44 43 42 43 43 40 37 35 33 31 28 26 26 26 23 21 20 17 15 14 11 9 8 7 6 4 2 2 4 8 10 11 11 12 13 15 17 18 18 17 17 18
36 36 36 36 36 36 37 37 37 37 37 37 37 36 36 36 33 31 30 31 31 28 28 29 29 31 31 30 33 33 34 34 32 32 34 35 38 41 45 48 51 53 52 51 50 49 47 47 48 48 47 44 40 37 34 32 30 28 27 27 27 25 22 21 19 16 14 12 10 9 7 6 4 3 4 7 10 13 14 14 14 15 16 16 16 16 16 17
37 38 38 38 37 37 37 38 38 37 37 37 37 37 37 36 34 32 30 32 33 30 29 30 30 31 31 28 29 31 34 34 32 34 34 33 34 35 39 44 47 50 52 53 52 50 49 51 51 50 49 47 43 40 37 34 31 29 29 29 29 28 26 24 23 20 17 14 13 11 9 8 7 6 6 9 12 14 14 13 13 14 13 13 14 15 15 15
39 40 41 41 40 39 38 40 39 38 39 38 39 40 38 37 36 35 33 33 36 35 31 30 32 35 34 30 28 29 32 32 32 34 34 35 33 31 34 39 41 45 50 53 53 52 52 53 53 52 50 49 47 44 39 36 33 32 30 31 32 32 30 28 26 23 20 16 15 14 11 10 10 8 8 11 13 14 13 12 11 11 12 12 13 14 14 15
41 42 43 43 42 41 40 40 41 40 39 39 41 42 39 38 38 37 35 33 37 40 33 29 34 37 36 34 32 31 30 31 33 33 32 35 35 32 32 34 36 41 46 49 51 52 54 55 54 53 52 52 51 48 43 40 37 34 32 33 35 35 33 31 29 26 22 19 18 16 14 12 11 10 10 12 14 14 13 11 10 11 12 12 13 14 13 15
44 43 44 44 43 44 42 41 42 41 40 41 42 42 39 39 38 37 36 33 36 42 38 33 37 39 38 38 36 34 32 34 34 31 31 34 36 34 33 33 35 37 40 44 47 51 55 57 55 54 54 53 52 50 48 45 41 37 36 37 37 37 36 34 33 29 24 23 23 18 16 14 12 13 13 14 15 15 14 12 11 11 13 14 14 15 15 14
46 45 45 45 44 45 45 43 43 43 42 43 44 42 40 39 38 37 36 32 35 40 40 39 40 40 40 40 38 37 37 37 36 34 33 33 35 35 33 34 36 36 35 37 41 47 53 56 56 55 55 54 54 52 51 50 45 41 42 41 39 40 40 38 37 32 27 28 26 21 19 16 14 15 15 15 15 15 16 15 13 13 14 15 16 16 16 16
49 47 46 47 46 46 48 47 44 44 45 46 47 44 42 41 39 39 37 33 35 39 40 43 43 41 41 40 40 41 41 39 38 38 36 33 34 35 34 34 36 37 34 31 35 43 50 53 55 57 56 55 55 55 55 54 48 46 48 45 42 42 43 42 40 34 31 31 27 23 22 19 17 16 15 15 16 16 18 18 17 15 15 16 16 17 18 18
52 50 48 49 49 48 51 51 47 47 48 48 49 47 46 45 43 43 39 34 37 41 40 42 45 45 44 41 41 44 43 40 39 40 39 36 36 36 35 34 35 37 36 33 33 38 43 49 53 55 56 57 58 58 58 56 52 50 52 48 45 45 45 45 43 38 35 32 28 25 23 22 20 18 16 16 17 19 19 19 18 17 16 17 18 19 20 19
55 54 51 51 52 51 53 54 52 52 52 51 51 50 50 49 47 46 41 37 42 46 43 42 45 48 46 43 44 45 45 43 42 41 40 40 39 38 38 36 34 36 37 36 35 36 39 43 48 52 55 58 60 60 60 58 56 55 55 51 49 48 47 47 46 43 37 30 28 27 25 25 23 21 18 17 20 21 20 19 19 19 18 19 20 22 22 21
59 57 56 54 55 56 57 57 56 57 56 54 54 53 52 52 51 48 43 43 48 49 47 47 48 48 47 47 47 47 47 46 45 42 41 43 42 40 40 39 36 36 36 36 37 38 39 38 41 47 52 56 59 60 61 61 59 58 57 54 53 52 50 49 48 46 38 29 29 31 29 28 25 24 22 21 22 22 21 21 21 22 22 22 22 24 24 22
63 62 61 59 58 60 61 60 59 61 60 58 57 56 55 55 52 48 46 49 53 52 52 52 52 49 48 48 49 48 49 49 48 45 41 42 43 42 42 41 39 38 37 37 38 39 39 38 39 42 48 52 56 58 61 62 62 61 60 58 57 56 53 50 48 47 41 34 34 36 34 30 27 27 27 25 25 24 23 23 23 24 24 24 24 24 24 24
67 67 66 65 63 64 66 65 63 64 64 64 62 60 59 57 52 50 52 55 57 58 58 57 55 53 50 50 51 51 51 51 51 49 44 42 43 43 44 44 42 40 40 40 40 39 39 39 40 39 42 47 51 56 60 63 65 64 63 62 60 58 56 51 49 48 46 41 40 41 38 33 30 31 30 29 29 28 26 24 24 25 25 25 25 25 25 25
71 71 72 71 70 68 69 70 69 68 68 68 67 65 63 58 53 55 58 60 62 64 65 62 59 57 54 53 54 55 55 53 55 55 49 45 44 44 45 47 46 44 44 43 41 40 39 39 40 40 40 42 47 53 57 61 65 65 65 64 62 60 57 55 53 51 50 48 46 44 40 37 35 35 35 35 34 32 29 27 27 26 25 25 25 26 27 26
75 75 76 77 76 74 73 75 75 74 73 72 71 69 65 60 59 62 63 64 67 69 70 69 65 61 59 58 56 57 59 58 58 59 55 49 47 46 46 48 49 48 47 46 44 42 40 39 42 44 43 42 43 48 53 57 60 63 65 65 62 60 59 59 58 55 55 54 49 45 42 40 39 37 39 40 37 35 33 32 30 28 27 27 26 28 29 29
78 79 80 81 80 79 78 78 79 79 78 77 76 72 68 67 68 69 69 70 71 72 73 74 71 67 66 64 62 60 61 62 63 63 59 54 50 49 48 49 51 51 49 49 49 47 43 41 43 44 45 44 42 44 49 52 54 59 63 62 61 62 64 65 63 60 60 57 51 48 46 44 41 39 41 43 39 37 37 36 34 32 31 29 28 30 31 31
81 82 84 84 83 83 83 82 83 83 83 82 79 75 74 75 75 75 75 75 76 76 76 76 75 74 71 71 69 66 64 65 66 66 64 60 55 52 51 52 53 53 52 52 53 52 49 46 44 43 43 45 45 43 45 47 50 54 57 59 64 69 70 68 66 64 63 58 51 51 51 49 45 42 43 45 41 39 40 39 38 36 34 31 31 32 33 34
85 86 89 90 88 87 86 86 86 87 87 86 82 80 80 80 80 79 80 80 80 81 80 78 78 79 78 76 75 74 73 71 70 69 69 66 61 56 55 54 54 55 56 56 55 55 55 52 48 45 43 44 47 45 42 43 47 52 54 58 66 71 70 68 67 65 64 59 54 54 55 53 47 43 45 47 44 42 43 42 41 40 37 35 35 35 35 36
88 89 93 94 93 91 90 89 90 91 91 89 86 85 85 85 84 84 84 84 84 84 83 81 81 82 82 81 79 79 80 79 76 74 73 71 67 63 60 58 57 56 58 59 58 57 59 56 53 50 45 44 46 45 42 41 44 49 54 58 60 63 66 68 68 67 66 63 60 59 59 55 48 45 48 49 47 46 47 45 43 43 41 40 41 38 37 38
91 92 96 98 97 96 95 94 94 94 94 93 91 90 90 89 90 89 88 88 88 88 86 85 85 85 84 84 84 83 84 84 83 80 77 74 72 69 66 63 61 59 59 60 60 61 61 59 56 55 52 46 42 42 43 44 44 47 51 54 55 56 61 67 70 70 68 66 64 63 61 54 49 51 52 53 52 50 50 49 46 44 44 44 44 41 38 39
95 95 98 101 101 100 99 98 98 97 97 96 96 95 95 94 94 94 94 93 92 92 91 90 89 88 86 86 87 87 88 88 87 85 82 79 76 74 72 69 66 64 63 61 61 63 64 62 60 60 57 48 42 42 44 45 46 47 48 51 52 54 58 63 68 69 68 68 67 68 64 56 52 56 57 57 56 53 52 52 49 48 48 47 47 44 41 41
99 99 102 106 106 103 103 102 101 102 101 100 100 100 100 99 99 98 98 98 97 96 97 96 94 92 92 91 90 91 92 92 90 89 87 83 80 77 76 76 72 69 66 64 62 63 66 67 63 61 60 55 48 45 43 44 47 48 47 48 51 53 55 59 61 64 66 68 70 72 69 60 56 59 62 60 58 56 55 54 52 52 52 50 49 47 44 44
104 103 106 111 111 108 106 105 105 106 106 104 104 105 104 103 103 102 102 102 102 102 102 101 99 98 98 96 96 96 97 96 94 91 91 89 86 83 82 81 78 75 71 68 66 64 66 68 66 63 62 61 56 47 42 42 45 46 44 45 50 52 52 54 57 61 66 69 72 75 71 63 60 61 63 63 60 60 59 56 55 55 54 53 53 51 48 46
108 108 111 115 116 114 111 110 110 111 111 109 108 108 108 108 107 107 107 107 107 107 107 106 105 104 104 103 103 101 101 100 98 95 95 94 91 89 87 85 83 81 78 73 70 69 66 67 68 67 64 63 60 50 41 40 42 44 45 45 48 50 52 54 56 60 65 66 69 75 73 66 63 64 65 65 64 64 63 58 57 58 57 57 56 55 52 49
111 112 115 119 121 119 117 115 115 116 116 115 113 112 111 111 111 111 111 111 110 111 111 109 108 109 109 109 108 106 104 104 102 100 99 98 95 94 93 90 88 86 83 78 75 74 71 68 69 70 66 63 62 57 52 49 46 46 48 48 47 50 52 54 55 59 63 61 64 72 74 70 67 67 68 69 68 67 65 61 61 61 61 59 58 57 55 52
115 115 118 122 124 123 122 121 121 121 121 120 118 116 115 115 115 115 115 115 115 115 114 113 112 113 115 114 112 110 108 109 108 105 104 102 99 98 98 96 93 90 87 83 80 79 77 74 70 69 67 65 65 64 64 63 54 46 46 48 50 50 51 53 56 56 56 58 61 66 70 72 72 71 71 72 71 69 67 66 65 64 64 62 60 59 59 56
118 119 121 123 125 126 126 125 125 125 125 124 122 121 119 118 118 119 120 120 120 120 119 118 117 119 119 117 116 114 113 113 113 110 108 105 102 101 101 100 98 95 91 88 85 83 83 81 74 69 68 67 67 67 68 69 61 47 44 47 51 53 51 51 52 52 53 57 59 59 63 69 71 73 75 74 73 73 72 71 70 69 67 66 63 61 60 59
122 122 123 125 126 127 128 129 129 129 128 127 126 124 122 121 122 123 124 125 126 125 124 123 123 123 122 120 120 119 117 116 116 115 112 108 103 102 102 101 101 100 96 92 89 88 87 85 79 73 70 68 69 70 70 71 67 53 45 46 51 55 54 49 46 47 53 58 55 54 59 65 66 70 76 77 76 76 76 76 74 71 70 69 67 63 61 62
126 127 127 127 128 129 130 132 133 133 132 131 130 128 126 125 126 128 129 130 130 130 129 128 127 126 125 124 124 123 121 120 119 118 115 110 106 103 103 104 104 103 99 94 93 93 90 87 84 78 72 70 71 71 71 73 71 61 50 47 50 53 54 52 47 45 51 56 54 53 59 63 62 63 71 78 81 80 79 80 77 72 71 73 71 67 66 66
131 131 131 131 132 132 133 135 136 137 137 135 134 133 132 130 130 131 132 133 134 134 133 132 131 129 128 127 127 127 126 123 122 120 118 114 110 107 107 107 107 106 102 98 97 98 95 91 87 82 77 74 71 70 73 75 74 69 60 51 48 51 54 54 52 49 49 52 54 56 58 59 58 59 65 75 82 82 81 81 79 75 74 76 74 70 70 69
134 135 135 135 135 135 136 137 138 139 140 139 138 138 136 136 135 135 136 136 137 137 137 135 133 132 131 131 131 130 129 127 125 123 120 117 114 112 111 110 110 110 107 103 102 103 100 95 89 86 82 77 72 72 74 75 77 76 64 49 45 50 54 53 52 51 49 49 53 57 57 54 56 58 62 69 77 83 83 81 80 79 78 77 76 74 72 71
133 133 132 132 132 132 132 132 133 134 135 135 135 135 134 133 133 133 134 135 137 138 138 138 136 135 135 135 135 135 133 131 129 126 123 121 118 115 114 113 113 113 111 109 107 105 104 99 94 91 86 78 75 75 74 78 83 73 56 50 54 56 54 52 51 50 51 52 54 56 56 54 57 61 62 63 70 78 83 83 83 83 82 80 79 78 75 72
Wind_Direction
274 275 276 277 277 278 279 279 280 281 282 284 285 287 288 291 292 294 296 297 299 300 303 305 307 310 312 313 314 316 319 323 328 334 342 349 355 0 5 8 9 12 17 22 22 24 30 31 29 25 15 333 248 229 221 221 223 223 223 226 232 236 237 235 238 246 252 259 269 274 277 278 279 280 279 277 278 278 274 271 264 263 263 264 267 268 268 272
274 275 276 277 277 278 278 279 279 280 281 283 284 285 286 288 289 290 292 293 294 295 297 298 299 302 303 305 305 306 309 313 318 321 326 334 343 348 353 357 358 359 2 10 14 15 22 24 20 15 11 3 321 252 232 227 228 229 230 233 237 240 240 241 245 249 252 256 264 270 272 274 276 278 278 277 277 277 273 270 266 263 261 261 263 264 266 270
274 275 276 276 277 278 278 279 280 280 281 282 283 284 285 286 286 287 288 289 290 291 292 292 293 294 295 297 297 298 299 304 310 309 313 321 328 332 337 342 343 346 346 352 1 1 6 12 12 8 4 1 349 316 261 238 233 234 236 239 242 244 245 248 251 252 253 257 259 263 266 269 273 275 276 276 274 273 269 267 265 262 260 258 257 259 262 265
275 276 276 277 277 278 278 279 280 280 281 281 282 283 284 285 286 286 287 287 288 289 289 289 289 289 289 290 291 292 292 298 301 299 307 311 312 317 321 326 328 331 333 333 342 347 349 355 359 358 357 356 351 345 322 272 247 242 243 245 245 245 246 249 252 253 254 257 258 260 265 269 273 274 274 272 269 267 265 265 263 260 257 256 254 257 260 263
277 277 277 278 278 279 279 279 280 280 281 281 281 282 283 283 284 285 285 285 285 286 286 286 286 286 285 284 285 287 288 292 291 293 303 304 301 305 307 312 314 316 320 320 323 330 334 338 342 345 347 350 350 346 338 327 295 261 249 248 248 247 246 246 249 250 252 256 259 261 265 269 272 272 271 268 264 262 262 262 260 258 257 257 257 259 262 264
277 277 278 278 278 279 279 279 279 279 279 280 280 280 280 280 281 281 282 282 282 282 282 282 282 282 281 280 280 282 285 287 286 292 299 295 292 295 297 300 301 304 307 308 311 313 319 324 328 332 335 341 345 342 339 341 337 314 271 253 249 247 246 246 247 249 251 256 262 265 267 269 270 268 266 264 259 258 258 258 257 258 257 258 259 260 262 261
275 275 276 276 276 276 276 276 277 277 277 277 277 277 277 277 277 278 278 278 278 278 277 277 277 277 276 276 276 277 280 283 286 290 289 284 285 288 290 290 290 293 296 299 301 303 306 311 317 320 323 329 335 339 343 345 345 342 321 276 254 248 247 247 248 250 253 259 264 269 272 270 265 262 260 258 256 254 255 255 254 256 256 256 257 256 256 255
273 273 274 274 274 274 274 274 274 275 274 274 274 274 274 275 274 275 275 275 275 275 275 274 274 273 272 272 271 271 273 278 282 281 279 279 282 284 284 284 284 285 286 290 293 296 300 302 307 313 314 319 327 335 342 344 346 346 343 321 278 255 248 247 248 250 254 260 265 270 273 268 260 257 255 254 254 251 253 253 251 251 252 252 249 247 246 244
273 273 273 273 273 273 273 273 273 273 273 272 272 272 272 272 272 272 272 273 273 273 272 272 271 271 270 269 268 268 268 271 274 274 275 277 278 279 280 280 281 280 280 282 286 290 294 297 301 306 309 312 318 328 336 339 342 343 345 343 318 279 259 251 249 249 252 256 263 267 266 261 255 253 250 252 253 248 248 249 244 242 242 243 239 234 231 227
271 271 271 271 271 271 271 271 271 271 271 271 271 270 270 270 270 270 270 271 271 271 271 270 270 269 268 268 267 266 265 266 268 269 271 272 272 274 277 278 277 277 277 276 279 284 288 292 295 299 303 307 311 316 324 330 334 338 341 344 337 312 282 265 256 252 252 253 257 258 255 252 250 249 246 247 248 243 237 236 234 229 228 233 231 225 221 217
269 269 269 269 269 270 270 270 270 270 270 270 270 269 269 269 269 268 268 268 268 269 269 269 268 267 267 266 265 264 264 264 264 264 266 268 268 268 271 274 274 274 275 273 274 277 281 286 288 291 294 299 303 305 310 318 324 330 335 340 340 331 312 290 268 257 252 249 249 251 251 251 249 246 239 232 233 232 227 227 227 223 221 225 227 225 222 217
270 270 271 271 271 271 271 271 271 271 270 270 270 269 269 268 268 267 267 267 266 266 266 267 266 266 265 264 263 262 261 261 261 261 261 263 264 264 265 268 271 272 272 272 271 271 274 278 281 285 287 290 295 297 300 305 313 321 328 335 340 339 330 312 280 264 254 244 244 248 249 248 243 238 230 221 218 218 219 223 225 224 222 223 225 226 225 222
273 273 273 273 274 274 274 274 273 273 273 272 272 271 271 270 269 269 268 267 267 266 265 265 265 265 264 263 263 261 260 259 259 259 258 258 261 261 260 262 266 268 269 270 269 268 268 271 275 279 282 285 288 290 294 297 302 310 320 328 335 342 339 326 296 267 254 242 237 239 244 246 240 232 224 216 213 211 208 217 228 230 227 227 229 230 230 233
274 274 275 275 275 276 276 276 276 276 275 275 275 274 274 273 273 272 271 270 269 268 267 266 265 264 263 263 263 261 259 258 257 257 256 255 256 258 258 257 259 263 265 266 267 266 265 266 269 273 276 280 282 283 288 291 294 300 310 321 329 338 343 338 319 283 259 241 231 231 240 246 241 233 224 216 213 210 204 209 226 234 233 234 236 238 240 241
275 275 276 276 276 277 277 277 277 277 277 278 277 277 277 276 275 275 273 272 271 270 269 268 266 265 264 263 263 261 259 258 257 255 255 254 254 255 256 255 255 257 261 263 264 265 264 264 264 266 271 274 275 278 282 283 285 291 299 308 318 328 339 341 338 322 281 251 233 230 233 239 241 236 227 219 213 211 209 210 219 231 235 235 239 243 240 228
274 275 276 276 276 277 277 277 278 279 279 279 279 279 279 278 278 277 276 275 273 272 270 269 267 266 265 263 262 262 260 258 257 256 254 253 252 252 253 254 253 253 256 259 261 262 262 262 261 260 264 267 270 273 274 274 277 284 289 294 303 313 322 329 343 353 323 283 255 243 239 239 241 238 229 222 216 214 215 215 218 226 233 232 235 236 216 185
273 274 275 276 277 278 278 279 279 280 281 282 282 282 282 282 281 280 279 277 276 275 273 271 269 268 266 264 262 262 261 258 256 256 255 253 251 251 251 252 252 251 251 255 258 259 259 259 259 258 259 261 264 266 266 267 271 278 282 284 289 295 300 305 316 340 350 335 296 264 253 249 247 244 236 228 221 216 218 222 221 225 229 222 217 211 183 158
272 273 274 275 277 278 279 280 281 282 283 284 284 285 285 285 285 285 283 282 281 279 277 275 272 270 269 266 263 263 262 260 257 256 255 253 251 250 249 250 250 250 249 250 253 255 256 256 258 259 257 255 257 258 261 265 267 271 275 277 280 283 285 285 287 300 328 344 337 302 268 257 250 247 243 234 225 220 221 225 224 221 216 202 193 188 169 156
272 273 274 275 277 277 279 279 280 281 282 283 284 285 286 286 286 287 286 286 286 284 283 281 278 274 273 270 266 263 263 262 259 257 255 254 252 250 249 248 248 249 249 248 248 251 254 255 257 258 254 250 252 256 260 263 263 265 269 270 272 274 277 277 277 278 288 315 329 330 312 267 244 238 234 225 220 221 223 225 218 206 194 184 179 174 161 154
272 272 273 273 274 275 276 276 277 278 279 280 281 282 282 282 284 286 286 286 286 286 285 284 283 280 278 277 272 267 266 263 260 260 258 255 252 251 249 247 247 247 248 247 247 248 250 254 254 253 251 249 249 252 257 259 258 258 262 265 266 268 270 270 271 270 269 281 302 316 319 294 243 211 196 197 205 213 216 211 198 185 176 172 168 162 154 150
269 270 270 270 271 272 274 275 275 276 277 277 278 279 279 279 280 282 284 285 284 285 286 284 285 283 280 281 279 276 273 269 263 262 261 257 254 252 250 248 247 245 245 246 246 246 246 249 249 248 249 248 246 248 252 255 255 253 256 260 263 264 264 265 265 265 263 261 272 292 302 291 269 211 172 177 185 188 185 178 169 164 163 162 158 155 153 153
268 268 268 269 269 270 272 274 275 276 277 277 277 277 277 278 279 279 282 284 283 285 286 286 287 284 281 281 282 282 280 277 273 269 265 261 257 255 252 249 247 245 245 244 245 244 243 244 246 248 250 250 248 247 249 252 254 253 253 257 261 261 260 261 260 259 259 258 258 267 277 273 254 231 194 174 171 170 167 162 157 157 159 159 156 159 161 163
267 268 269 269 269 270 271 273 274 276 277 278 278 277 276 277 278 278 280 281 282 283 284 287 288 285 282 281 281 281 281 282 281 277 272 266 261 258 255 252 248 247 245 243 242 242 242 242 244 247 249 251 250 248 247 249 253 253 250 251 256 257 257 258 257 255 255 255 255 252 254 260 248 227 203 180 167 164 163 161 163 165 166 168 168 171 173 172
267 269 269 269 269 269 269 271 272 274 275 277 277 276 276 277 278 278 278 279 281 280 281 284 284 283 284 283 282 279 281 282 280 279 279 275 268 262 258 256 252 249 246 243 242 241 241 241 242 244 247 249 250 248 245 245 247 249 248 247 249 252 254 253 253 252 250 251 254 250 244 246 247 232 208 192 178 171 169 169 175 178 180 184 182 182 183 179
267 268 269 269 269 268 267 268 270 271 273 274 274 274 276 277 277 277 276 277 279 279 279 279 277 279 283 284 283 282 282 280 277 279 280 279 275 269 265 262 255 250 246 245 242 241 241 241 241 242 243 246 248 248 245 242 241 244 245 243 244 247 249 250 250 247 246 249 249 249 246 239 242 238 218 206 197 188 187 186 188 192 194 196 191 190 192 188
268 269 270 270 269 269 267 267 269 270 271 272 271 273 274 274 275 276 276 277 278 279 281 278 274 275 280 282 284 284 281 278 280 282 277 276 278 275 272 270 262 254 249 246 244 242 241 241 240 240 241 243 246 247 246 242 239 239 241 239 240 245 246 247 248 243 241 246 245 244 247 239 233 235 228 220 214 207 207 205 204 203 202 202 199 198 200 195
269 268 269 270 270 271 270 268 270 271 272 273 272 272 273 272 273 274 274 276 277 280 283 280 276 276 277 279 281 279 277 280 283 282 277 276 278 276 274 273 269 263 255 248 245 244 242 241 240 239 239 240 243 245 245 243 239 236 238 237 238 243 244 244 245 241 238 242 242 240 244 240 230 230 230 228 224 218 215 215 215 213 207 207 206 205 202 197
268 267 267 268 269 270 271 270 269 271 272 273 274 273 273 273 273 273 273 275 277 279 280 280 280 279 277 276 276 273 275 279 279 279 282 282 278 276 274 272 272 271 265 255 247 245 244 242 240 239 239 239 240 242 243 244 240 237 238 238 237 240 243 244 244 241 237 237 237 237 242 242 237 232 229 230 229 223 220 218 218 216 211 207 207 206 204 199
267 267 266 267 268 268 270 270 269 270 270 271 272 273 274 274 274 274 274 277 279 277 276 278 280 278 276 276 275 274 275 275 274 277 283 282 278 279 277 273 272 273 271 264 255 249 246 244 242 240 239 238 238 239 242 243 241 238 237 237 237 238 241 244 245 242 238 234 232 235 240 243 243 238 231 229 231 228 224 222 219 216 212 208 206 207 208 206
266 266 265 266 267 267 267 269 270 269 268 269 270 271 272 273 274 274 277 280 279 277 276 275 274 275 277 277 276 275 276 275 274 276 278 276 277 279 280 278 274 272 271 269 265 259 251 245 243 242 239 238 238 238 240 242 241 239 238 236 236 237 239 242 246 245 239 234 234 237 237 240 242 242 237 232 231 230 227 225 222 219 215 212 210 209 211 212
266 265 265 264 265 267 266 267 268 269 268 268 269 270 270 271 272 274 279 279 276 276 276 274 272 272 275 276 275 276 277 276 275 275 274 273 275 277 278 279 277 274 272 270 266 263 259 252 246 243 240 240 239 238 239 240 241 241 240 237 235 235 237 239 244 247 243 238 239 240 237 235 237 241 240 237 233 230 227 227 225 222 220 217 216 215 214 215
266 266 265 264 264 265 266 266 265 267 268 267 267 268 269 269 271 275 277 275 274 274 273 272 272 272 272 274 275 276 275 275 274 275 273 272 274 276 276 276 277 277 275 270 266 264 263 260 253 246 243 242 240 239 238 239 240 240 239 238 236 234 235 238 242 247 247 242 239 240 237 231 234 240 239 239 239 233 227 227 226 226 225 222 221 222 221 221
267 267 267 265 264 264 265 266 265 265 267 267 266 266 266 267 270 274 273 272 272 272 270 270 270 271 271 272 274 274 274 275 275 275 273 272 273 275 276 276 276 275 273 270 268 267 264 262 260 253 247 245 242 239 238 238 238 239 239 239 237 235 233 234 238 242 245 242 237 238 235 228 231 238 237 236 238 237 231 227 227 226 227 229 228 228 228 229
268 268 268 267 265 264 265 266 266 265 266 266 266 266 266 268 270 271 270 270 271 271 270 269 268 269 269 270 272 274 274 274 275 275 273 272 273 274 275 275 275 274 272 272 271 269 265 262 260 256 251 249 247 241 239 239 239 240 241 241 240 238 236 233 234 236 240 239 236 236 233 227 227 232 235 234 233 235 234 230 229 227 226 229 232 233 233 232
268 268 268 268 267 266 266 266 267 266 266 266 266 267 268 270 269 268 268 268 269 270 271 270 269 269 269 269 269 272 274 273 273 273 273 272 273 273 273 274 275 274 273 273 272 268 265 262 259 257 253 252 252 248 242 239 241 241 241 242 242 241 238 235 233 233 237 238 237 236 234 230 228 228 233 234 230 231 233 232 232 230 227 227 230 235 235 236
268 269 268 268 268 267 266 266 267 267 266 266 266 268 269 270 269 268 268 268 268 269 270 271 272 271 270 270 268 268 270 271 271 271 272 272 271 272 273 272 273 274 273 272 271 270 268 263 259 258 256 253 252 252 248 243 242 242 242 242 242 240 238 236 232 231 234 235 235 237 236 233 230 229 233 235 232 231 232 233 233 231 229 227 228 233 237 238
267 268 268 268 267 267 267 267 267 267 266 266 266 267 268 267 267 267 267 267 267 268 269 271 272 272 271 271 270 269 267 268 269 271 272 271 270 270 271 271 271 272 273 270 270 271 270 266 262 260 258 256 252 251 252 249 245 243 243 242 241 239 239 238 234 232 233 234 234 236 238 236 232 229 233 235 233 233 235 235 235 234 231 229 227 231 235 237
267 267 267 267 267 267 267 267 267 266 266 266 266 266 265 265 265 265 265 265 266 267 268 269 271 271 271 271 271 271 269 267 267 268 270 270 271 270 269 270 270 270 270 270 269 270 270 269 267 262 258 256 254 250 251 254 251 246 242 242 242 241 241 240 238 235 234 233 232 233 236 237 235 232 235 236 234 234 237 236 236 236 233 232 230 229 233 236
266 266 267 267 267 267 266 266 266 266 266 266 266 266 265 265 264 264 264 265 265 265 266 267 268 269 270 271 270 270 270 270 268 267 268 269 270 270 269 268 269 268 268 269 269 268 268 269 269 267 261 256 255 253 250 251 254 251 245 242 243 244 243 242 240 237 235 233 231 231 234 235 236 235 236 237 235 234 236 235 235 238 236 234 233 230 233 239
266 266 266 267 267 267 266 266 266 266 267 267 267 266 266 265 265 265 265 265 265 265 265 266 266 266 267 269 269 269 269 270 269 268 268 268 269 269 269 268 268 267 266 266 267 267 269 271 270 268 265 258 254 254 251 249 251 254 250 245 244 245 244 243 242 239 236 234 233 233 234 233 234 236 236 237 235 233 235 235 234 238 238 237 237 234 234 241
266 266 266 267 266 266 266 266 266 266 267 267 267 267 267 266 266 266 266 265 265 265 265 265 265 265 265 266 267 268 268 268 268 269 268 268 268 269 269 268 266 265 264 265 267 267 268 269 267 266 268 265 255 249 249 250 251 252 253 251 248 246 245 244 243 243 240 236 235 234 233 230 230 234 236 236 236 234 234 235 234 236 238 237 238 237 234 238
266 266 266 266 266 266 266 266 266 266 266 266 266 266 266 266 266 267 267 267 267 266 266 266 266 266 265 265 265 265 265 266 266 267 268 268 267 267 267 267 265 264 264 265 265 265 265 268 269 269 270 269 262 251 245 249 254 253 253 256 254 249 247 246 244 245 243 238 236 235 232 227 227 232 235 236 237 237 235 235 235 236 237 237 238 237 234 236
265 266 266 266 266 266 266 266 266 265 265 264 264 265 265 265 265 266 266 266 266 266 266 267 267 266 266 265 265 264 264 265 265 266 267 267 267 267 266 266 267 266 265 264 264 263 263 267 272 271 267 267 267 260 246 243 252 257 256 257 258 254 250 249 245 244 244 240 237 237 233 228 227 230 234 236 237 238 237 234 235 236 237 237 238 236 234 235
265 265 266 266 266 266 265 265 265 265 264 264 263 263 264 264 264 264 264 264 265 265 265 266 266 266 266 265 264 263 264 265 265 265 266 266 267 267 266 266 266 266 265 264 264 263 262 263 267 269 268 269 270 268 257 246 247 256 258 256 258 256 252 249 247 243 243 243 241 240 236 231 229 230 234 235 236 238 239 237 236 236 237 237 237 237 234 233
265 265 265 266 266 266 266 265 265 264 264 264 263 263 263 263 263 263 263 263 264 264 264 264 265 265 265 264 264 264 264 264 265 265 265 265 266 266 266 265 265 265 266 266 264 263 263 261 262 268 272 273 272 271 267 258 247 248 255 255 256 257 254 251 250 245 242 243 243 242 239 234 231 231 233 235 235 237 240 240 239 238 237 236 236 238 237 233
266 266 266 266 266 267 266 266 265 264 264 264 263 263 262 262 262 262 262 262 262 262 262 262 262 262 262 263 264 264 264 264 264 264 264 264 264 264 264 265 265 266 266 266 265 264 264 263 261 265 269 271 270 268 267 265 256 244 246 253 257 259 257 254 252 249 246 244 244 244 242 237 233 231 233 235 236 236 238 239 240 239 239 239 237 237 238 237
267 267 266 266 267 267 267 267 266 265 265 264 263 263 262 262 261 261 261 261 260 260 260 260 260 260 261 262 262 262 262 263 263 264 264 264 264 265 266 267 268 267 266 266 265 263 263 265 264 262 262 264 265 264 263 266 264 250 239 247 257 260 259 256 253 253 252 248 243 244 245 241 236 233 233 235 235 236 236 236 237 239 240 240 239 237 238 239
269 268 268 267 267 268 268 268 267 266 266 265 264 263 262 262 261 261 260 260 260 259 259 259 259 259 259 260 260 260 260 260 261 262 263 263 263 264 265 266 267 267 266 265 264 262 261 264 265 261 257 256 259 262 262 263 266 259 245 245 255 260 259 257 255 254 256 252 246 244 245 243 239 236 235 235 235 235 236 236 235 236 239 241 241 239 239 240
272 271 270 270 269 269 268 268 268 268 267 266 265 265 263 262 261 261 260 260 260 259 259 258 258 258 258 258 258 259 259 258 259 260 261 261 261 261 262 262 263 264 264 263 262 261 261 263 264 262 258 254 254 258 260 261 264 263 255 250 255 259 259 259 257 255 256 255 252 249 247 244 241 238 237 237 236 235 236 237 236 236 238 241 242 241 241 241
273 272 272 271 270 270 269 269 268 268 268 267 266 265 264 263 262 261 260 260 260 259 259 258 258 257 257 257 257 257 257 257 257 259 260 260 260 259 259 260 261 261 261 260 260 261 261 262 263 263 260 257 255 255 257 260 262 264 262 257 255 257 259 260 260 258 256 255 255 254 251 247 244 241 238 238 238 236 236 237 238 237 237 240 242 241 242 243
273 273 272 271 270 270 269 269 268 268 268 267 266 265 264 263 262 261 260 260 259 259 259 258 257 257 257 256 256 256 256 256 256 256 257 258 258 258 257 258 259 260 260 258 257 259 260 261 261 260 259 259 258 255 254 256 259 261 263 262 259 258 258 257 257 259 259 257 255 253 252 250 248 244 238 237 239 238 237 236 238 237 237 239 241 241 242 243
273 273 272 271 271 270 269 268 268 267 267 266 265 264 263 263 261 260 259 258 258 258 257 257 256 256 256 255 255 255 254 254 254 254 254 255 255 255 255 255 256 257 258 257 256 257 259 260 259 257 257 256 256 254 252 252 256 259 264 266 262 258 256 255 254 256 260 260 256 252 250 249 249 247 241 237 238 240 239 237 237 237 236 236 239 241 240 241
Height
10990 10990 10990 10991 10991 10991 10991 10992 10992 10992 10992 10993 10993 10993 10993 10993 10994 10994 10994 10995 10995 10995 10995 10995 10995 10994 10993 10992 10992 10991 10991 10992 10992 10992 10993 10993 10992 10992 10991 10991 10990 10989 10989 10988 10987 10987 10987 10986 10985 10985 10985 10985 10985 10985 10985 10985 10985 10985 10985 10985 10986 10987 10987 10987 10987 10987 10987 10987 10987 10987 10986 10986 10986 10986 10986 10987 10988 10988 10990 10990 10989 10989 10990 10990 10990 10991 10992 10993
10988 10988 10988 10988 10988 10988 10989 10989 10989 10990 10990 10990 10990 10991 10991 10991 10992 10992 10992 10993 10993 10993 10994 10994 10994 10993 10992 10991 10990 10990 10989 10990 10991 10991 10991 10992 10992 10992 10992 10991 10990 10989 10989 10988 10988 10987 10987 10987 10986 10985 10985 10984 10984 10984 10984 10984 10984 10984 10984 10984 10985 10985 10985 10986 10986 10985 10985 10986 10986 10985 10985 10985 10985 10984 10984 10985 10986 10986 10987 10986 10986 10987 10988 10988 10989 10989 10991 10991
10985 10985 10985 10985 10985 10986 10986 10986 10987 10987 10988 10988 10988 10988 10989 10989 10989 10990 10990 10991 10991 10991 10992 10992 10992 10992 10992 10990 10989 10988 10988 10989 10990 10989 10990 10991 10991 10991 10991 10991 10990 10989 10988 10988 10988 10987 10987 10987 10986 10986 10985 10984 10984 10983 10983 10983 10983 10983 10982 10982 10982 10983 10983 10984 10983 10983 10984 10984 10984 10984 10984 10984 10984 10983 10983 10983 10984 10984 10984 10983 10983 10984 10985 10986 10987 10988 10989 10990
10982 10982 10982 10982 10983 10983 10983 10983 10984 10984 10985 10985 10986 10986 10986 10986 10987 10987 10987 10988 10989 10989 10989 10990 10990 10990 10990 10989 10988 10986 10985 10987 10988 10987 10988 10989 10989 10990 10990 10990 10990 10989 10988 10987 10987 10987 10987 10987 10986 10986 10985 10984 10983 10983 10982 10982 10981 10981 10980 10979 10979 10980 10981 10981 10981 10981 10982 10983 10983 10983 10982 10982 10982 10981 10981 10981 10982 10982 10981 10981 10982 10982 10983 10985 10985 10986 10987 10988
10979 10979 10979 10979 10979 10980 10980 10980 10981 10981 10982 10982 10983 10983 10983 10984 10984 10984 10985 10985 10986 10987 10987 10987 10988 10988 10988 10988 10987 10985 10983 10985 10987 10985 10986 10987 10987 10988 10989 10989 10989 10988 10988 10987 10986 10986 10986 10986 10986 10985 10985 10984 10983 10982 10982 10980 10979 10978 10978 10977 10977 10978 10978 10979 10979 10979 10980 10981 10981 10981 10980 10980 10980 10979 10979 10980 10979 10980 10980 10980 10980 10980 10982 10983 10984 10984 10985 10986
10975 10975 10975 10976 10976 10976 10976 10977 10977 10978 10979 10979 10979 10980 10980 10981 10981 10981 10982 10982 10983 10984 10984 10985 10985 10985 10986 10986 10985 10984 10981 10982 10984 10984 10985 10985 10984 10985 10986 10987 10988 10987 10987 10986 10985 10985 10985 10985 10985 10984 10984 10983 10983 10982 10981 10979 10978 10976 10975 10975 10975 10975 10976 10976 10976 10977 10977 10978 10978 10978 10978 10978 10978 10978 10978 10978 10978 10978 10978 10978 10979 10979 10980 10981 10982 10983 10983 10984
10971 10972 10972 10972 10972 10972 10972 10973 10974 10974 10975 10975 10976 10976 10977 10977 10978 10978 10979 10979 10980 10981 10981 10982 10982 10983 10983 10983 10983 10983 10980 10979 10982 10983 10983 10982 10982 10982 10984 10985 10986 10986 10986 10985 10984 10984 10984 10984 10984 10983 10983 10983 10982 10981 10979 10978 10977 10975 10974 10973 10973 10973 10974 10974 10974 10975 10975 10976 10976 10976 10976 10976 10976 10976 10977 10976 10976 10977 10977 10977 10978 10978 10978 10980 10980 10981 10982 10983
10968 10968 10968 10968 10968 10968 10968 10969 10969 10970 10971 10971 10972 10972 10973 10974 10974 10975 10975 10976 10976 10977 10978 10979 10979 10980 10980 10981 10981 10980 10979 10977 10979 10981 10980 10980 10980 10980 10981 10982 10983 10984 10984 10984 10983 10982 10982 10982 10982 10982 10982 10981 10981 10980 10978 10977 10976 10975 10974 10973 10972 10972 10972 10972 10973 10973 10973 10974 10974 10974 10974 10974 10974 10974 10975 10974 10974 10976 10975 10975 10977 10977 10977 10978 10979 10980 10980 10981
10963 10963 10963 10963 10963 10963 10964 10964 10965 10965 10966 10967 10967 10968 10969 10969 10970 10971 10972 10972 10973 10973 10974 10975 10975 10976 10977 10977 10978 10978 10977 10976 10977 10977 10977 10977 10978 10978 10978 10979 10980 10981 10982 10982 10982 10981 10981 10980 10981 10980 10980 10979 10979 10979 10978 10977 10976 10975 10974 10973 10972 10971 10970 10970 10971 10971 10972 10972 10972 10972 10973 10972 10972 10973 10974 10973 10973 10974 10974 10974 10975 10976 10976 10977 10978 10979 10979 10980
10958 10958 10958 10958 10958 10958 10959 10959 10960 10960 10961 10962 10962 10963 10964 10965 10966 10966 10967 10968 10968 10969 10970 10971 10971 10972 10973 10973 10974 10974 10973 10973 10974 10974 10974 10974 10975 10976 10975 10976 10977 10978 10979 10980 10980 10980 10980 10979 10979 10979 10978 10978 10978 10978 10978 10977 10976 10975 10974 10973 10972 10971 10970 10969 10969 10969 10969 10970 10970 10971 10971 10971 10971 10972 10973 10972 10972 10973 10973 10973 10974 10975 10976 10976 10977 10978 10979 10980
10953 10953 10953 10953 10953 10953 10954 10954 10955 10955 10956 10956 10957 10958 10959 10960 10961 10962 10963 10963 10964 10965 10965 10966 10966 10967 10968 10969 10970 10971 10969 10970 10971 10971 10971 10971 10972 10973 10973 10973 10974 10975 10976 10977 10978 10979 10978 10978 10978 10978 10978 10977 10976 10977 10977 10977 10976 10975 10974 10973 10972 10970 10969 10968 10968 10967 10967 10968 10969 10970 10970 10970 10970 10970 10971 10972 10971 10972 10973 10973 10974 10975 10976 10976 10977 10978 10979 10979
10948 10948 10948 10948 10948 10949 10949 10949 10950 10950 10951 10951 10952 10953 10954 10955 10956 10957 10957 10958 10959 10960 10960 10961 10961 10961 10963 10964 10965 10966 10965 10966 10967 10968 10968 10967 10968 10969 10970 10970 10970 10971 10972 10973 10975 10976 10977 10977 10976 10976 10977 10977 10976 10975 10976 10976 10976 10975 10974 10973 10972 10970 10968 10968 10967 10966 10966 10967 10968 10969 10969 10968 10969 10969 10969 10970 10971 10971 10972 10973 10973 10974 10975 10976 10977 10978 10979 10979
10943 10943 10943 10943 10943 10944 10944 10944 10944 10945 10945 10946 10946 10947 10948 10949 10950 10951 10952 10953 10954 10955 10956 10956 10956 10956 10957 10958 10959 10961 10961 10961 10962 10963 10964 10964 10964 10965 10967 10967 10967 10968 10969 10970 10971 10973 10975 10975 10975 10975 10975 10975 10975 10974 10974 10974 10975 10974 10973 10973 10971 10970 10968 10967 10966 10965 10965 10966 10967 10967 10968 10968 10968 10968 10968 10969 10970 10970 10971 10972 10973 10974 10975 10976 10977 10978 10978 10979
10938 10938 10938 10938 10938 10938 10938 10938 10938 10939 10939 10940 10941 10942 10942 10943 10944 10945 10946 10947 10948 10949 10950 10951 10951 10951 10952 10953 10953 10955 10956 10956 10957 10958 10959 10960 10960 10960 10962 10964 10965 10964 10965 10966 10968 10969 10971 10972 10973 10973 10973 10974 10973 10972 10972 10972 10973 10973 10972 10972 10971 10970 10969 10967 10967 10966 10965 10965 10966 10966 10967 10967 10967 10967 10967 10968 10969 10970 10971 10972 10973 10974 10975 10976 10977 10978 10978 10979
10933 10933 10933 10933 10932 10932 10933 10933 10933 10933 10933 10934 10935 10935 10936 10937 10938 10939 10939 10940 10941 10943 10943 10944 10944 10944 10946 10947 10947 10948 10950 10952 10952 10953 10954 10955 10956 10956 10957 10959 10961 10961 10961 10962 10964 10966 10968 10969 10970 10971 10971 10971 10971 10971 10971 10971 10971 10971 10971 10972 10971 10970 10969 10968 10967 10966 10966 10965 10966 10966 10966 10966 10967 10967 10967 10968 10969 10970 10970 10971 10972 10973 10975 10975 10976 10977 10978 10978
10928 10927 10927 10927 10927 10927 10927 10927 10927 10927 10928 10928 10929 10930 10930 10931 10932 10932 10933 10933 10935 10936 10936 10937 10937 10938 10939 10940 10941 10941 10943 10946 10947 10947 10948 10949 10951 10952 10952 10954 10956 10958 10958 10958 10960 10962 10964 10966 10967 10968 10969 10969 10968 10969 10969 10969 10970 10970 10971 10971 10971 10970 10969 10968 10967 10967 10966 10966 10965 10965 10965 10966 10966 10966 10967 10967 10968 10969 10970 10971 10972 10973 10974 10975 10976 10977 10977 10978
10922 10922 10922 10922 10921 10921 10921 10922 10922 10922 10923 10923 10923 10924 10924 10925 10926 10927 10926 10927 10929 10929 10930 10930 10930 10932 10931 10932 10935 10935 10934 10938 10941 10941 10942 10944 10945 10946 10948 10949 10951 10953 10955 10955 10956 10957 10960 10961 10962 10965 10966 10966 10966 10966 10965 10966 10968 10969 10969 10970 10970 10970 10970 10969 10968 10967 10966 10966 10965 10965 10965 10965 10965 10966 10966 10967 10968 10969 10970 10970 10971 10972 10973 10974 10975 10976 10977 10977
10917 10917 10917 10917 10917 10916 10916 10917 10917 10917 10918 10918 10918 10919 10920 10919 10921 10922 10921 10922 10923 10923 10924 10924 10924 10926 10924 10925 10928 10928 10927 10931 10935 10935 10935 10938 10939 10941 10943 10944 10945 10948 10950 10952 10951 10953 10955 10957 10959 10961 10963 10963 10962 10962 10962 10963 10967 10967 10967 10968 10968 10969 10969 10968 10968 10967 10967 10966 10966 10965 10965 10964 10964 10965 10965 10965 10967 10968 10969 10970 10971 10971 10973 10973 10975 10976 10976 10977
10912 10912 10912 10912 10912 10911 10911 10911 10912 10912 10913 10913 10913 10914 10915 10914 10916 10917 10916 10918 10919 10918 10919 10918 10919 10921 10919 10918 10921 10922 10922 10924 10927 10928 10929 10931 10933 10934 10937 10939 10940 10942 10944 10947 10948 10949 10951 10953 10956 10957 10957 10958 10958 10958 10959 10961 10964 10965 10965 10965 10966 10967 10967 10968 10967 10967 10967 10967 10966 10966 10965 10965 10964 10964 10964 10964 10965 10967 10968 10969 10970 10971 10972 10973 10974 10975 10976 10977
10907 10907 10907 10907 10907 10907 10906 10906 10907 10907 10907 10909 10909 10910 10910 10910 10912 10912 10911 10913 10914 10914 10915 10914 10914 10916 10915 10913 10914 10917 10917 10918 10921 10922 10923 10924 10926 10928 10930 10933 10935 10936 10938 10941 10944 10946 10948 10950 10951 10949 10949 10953 10955 10955 10956 10958 10961 10962 10963 10963 10964 10965 10966 10966 10966 10966 10966 10967 10966 10966 10965 10965 10965 10965 10964 10964 10965 10967 10968 10969 10970 10970 10971 10972 10974 10975 10976 10977
10902 10902 10902 10902 10902 10902 10901 10901 10902 10902 10902 10904 10904 10905 10905 10905 10908 10909 10907 10908 10910 10910 10910 10910 10909 10910 10911 10910 10909 10912 10912 10912 10916 10917 10917 10918 10920 10922 10924 10927 10929 10930 10932 10936 10939 10941 10944 10945 10942 10941 10943 10947 10950 10952 10954 10956 10958 10959 10960 10961 10962 10963 10964 10965 10965 10965 10966 10966 10966 10966 10966 10965 10965 10965 10965 10965 10965 10966 10968 10969 10970 10971 10971 10973 10974 10975 10976 10977
10896 10896 10896 10896 10897 10897 10896 10896 10896 10897 10897 10898 10899 10900 10900 10901 10903 10905 10905 10904 10904 10907 10906 10905 10906 10904 10906 10907 10906 10907 10907 10908 10911 10911 10910 10912 10915 10917 10918 10920 10922 10924 10928 10931 10932 10935 10939 10938 10934 10936 10939 10942 10946 10950 10952 10953 10955 10957 10958 10958 10959 10960 10961 10962 10963 10964 10965 10965 10965 10966 10966 10966 10965 10966 10966 10966 10966 10967 10968 10970 10971 10971 10972 10974 10975 10976 10977 10977
10891 10890 10890 10890 10891 10892 10892 10890 10891 10892 10892 10892 10893 10894 10895 10896 10898 10900 10902 10900 10899 10902 10903 10902 10902 10900 10901 10904 10904 10903 10903 10904 10906 10904 10905 10908 10910 10913 10913 10913 10916 10919 10922 10924 10925 10929 10932 10931 10930 10933 10936 10938 10942 10946 10949 10951 10953 10954 10955 10956 10956 10956 10958 10959 10960 10962 10963 10964 10964 10965 10965 10966 10966 10966 10966 10966 10967 10967 10969 10970 10971 10972 10974 10975 10975 10976 10977 10978
10887 10885 10884 10884 10885 10887 10887 10885 10886 10887 10887 10888 10887 10887 10889 10892 10893 10895 10897 10897 10894 10895 10899 10899 10896 10895 10896 10900 10901 10900 10900 10901 10901 10900 10902 10902 10904 10908 10908 10908 10912 10914 10914 10916 10920 10924 10925 10924 10927 10930 10932 10933 10936 10940 10944 10948 10950 10951 10952 10952 10952 10952 10954 10955 10957 10959 10961 10963 10963 10964 10964 10965 10966 10966 10966 10967 10968 10968 10969 10970 10971 10972 10974 10975 10976 10976 10977 10978
10882 10880 10879 10878 10879 10880 10881 10880 10880 10882 10882 10882 10881 10880 10885 10886 10887 10889 10891 10894 10890 10886 10894 10897 10892 10889 10892 10895 10896 10897 10898 10897 10896 10898 10899 10897 10899 10903 10903 10905 10906 10906 10907 10911 10915 10918 10917 10918 10922 10925 10927 10929 10930 10934 10939 10942 10945 10947 10948 10948 10947 10948 10950 10952 10954 10955 10959 10961 10961 10962 10964 10964 10965 10966 10967 10967 10968 10969 10969 10970 10971 10972 10973 10975 10976 10977 10978 10979
10876 10876 10873 10872 10873 10873 10875 10876 10874 10876 10877 10876 10874 10876 10879 10880 10882 10883 10885 10889 10887 10881 10886 10891 10887 10885 10887 10889 10891 10892 10894 10891 10892 10896 10896 10893 10895 10898 10899 10899 10899 10900 10903 10907 10910 10912 10911 10911 10916 10920 10922 10924 10926 10929 10932 10936 10940 10943 10943 10942 10942 10944 10946 10947 10949 10952 10956 10958 10959 10961 10963 10964 10965 10965 10966 10967 10968 10969 10969 10970 10971 10972 10973 10974 10975 10976 10977 10979
10869 10870 10868 10866 10867 10866 10866 10869 10869 10870 10871 10869 10868 10870 10873 10874 10876 10878 10879 10884 10883 10878 10879 10881 10881 10882 10882 10884 10886 10887 10887 10887 10888 10890 10890 10891 10892 10892 10894 10894 10894 10896 10899 10903 10906 10904 10903 10906 10911 10914 10916 10919 10922 10923 10924 10927 10935 10939 10936 10936 10939 10940 10941 10943 10944 10948 10952 10954 10956 10959 10961 10962 10964 10964 10965 10966 10967 10968 10969 10970 10970 10971 10972 10973 10974 10976 10976 10978
10862 10863 10863 10860 10861 10861 10858 10860 10864 10864 10863 10863 10862 10864 10866 10867 10870 10871 10874 10879 10878 10875 10875 10873 10873 10876 10877 10879 10880 10880 10881 10883 10884 10883 10885 10889 10888 10887 10890 10891 10890 10891 10895 10900 10900 10897 10897 10901 10904 10906 10910 10914 10916 10916 10917 10920 10929 10932 10929 10931 10935 10935 10936 10938 10940 10945 10948 10950 10954 10957 10959 10961 10962 10963 10964 10966 10966 10967 10968 10969 10969 10970 10971 10972 10973 10974 10975 10976
10854 10855 10856 10853 10853 10855 10851 10851 10856 10857 10856 10856 10856 10858 10860 10861 10864 10865 10868 10874 10872 10869 10870 10869 10867 10866 10869 10873 10874 10873 10875 10878 10879 10879 10881 10883 10883 10884 10886 10887 10888 10888 10890 10894 10894 10893 10893 10894 10897 10901 10905 10907 10908 10910 10911 10915 10922 10924 10922 10927 10931 10931 10933 10933 10936 10941 10943 10947 10952 10955 10958 10959 10960 10961 10963 10964 10965 10965 10966 10967 10969 10970 10971 10971 10972 10973 10973 10974
10846 10847 10849 10847 10845 10847 10845 10844 10847 10848 10849 10850 10850 10851 10853 10854 10856 10858 10864 10868 10863 10860 10864 10865 10861 10859 10862 10866 10867 10866 10868 10871 10874 10876 10877 10877 10879 10881 10880 10882 10885 10885 10885 10889 10890 10889 10888 10889 10892 10896 10898 10899 10901 10904 10907 10909 10914 10914 10915 10922 10925 10927 10929 10929 10932 10935 10939 10946 10951 10953 10955 10957 10958 10960 10961 10962 10963 10963 10965 10966 10967 10968 10969 10970 10971 10972 10972 10973
10838 10838 10840 10840 10838 10837 10836 10838 10840 10838 10839 10843 10843 10844 10846 10847 10849 10853 10860 10859 10853 10853 10856 10855 10854 10855 10857 10858 10859 10861 10862 10863 10865 10870 10873 10872 10873 10876 10876 10877 10880 10881 10882 10884 10884 10883 10883 10886 10888 10889 10891 10893 10895 10899 10902 10904 10906 10907 10910 10916 10919 10922 10924 10926 10928 10930 10937 10946 10948 10948 10950 10953 10956 10958 10959 10959 10960 10961 10963 10964 10966 10966 10968 10969 10970 10971 10972 10972
10828 10829 10829 10830 10831 10829 10826 10830 10832 10830 10830 10834 10835 10836 10838 10840 10844 10850 10852 10847 10844 10845 10845 10845 10846 10850 10852 10852 10853 10855 10855 10855 10857 10861 10867 10868 10868 10870 10872 10873 10875 10876 10878 10879 10878 10879 10881 10883 10883 10884 10886 10887 10889 10892 10895 10897 10898 10900 10903 10906 10911 10916 10920 10923 10926 10928 10934 10942 10943 10942 10944 10949 10953 10954 10955 10957 10957 10959 10961 10962 10963 10964 10966 10967 10968 10969 10970 10971
10819 10819 10819 10819 10822 10821 10817 10819 10823 10823 10822 10823 10826 10828 10830 10833 10841 10845 10841 10837 10835 10833 10833 10836 10839 10841 10845 10846 10846 10847 10848 10849 10849 10851 10859 10862 10863 10865 10866 10867 10869 10872 10873 10873 10874 10876 10878 10878 10879 10881 10882 10880 10881 10884 10887 10889 10890 10892 10895 10898 10904 10910 10915 10920 10923 10925 10929 10934 10936 10936 10938 10944 10948 10950 10951 10953 10953 10955 10957 10959 10960 10962 10964 10965 10966 10967 10968 10969
10809 10809 10808 10807 10809 10812 10810 10808 10811 10813 10813 10813 10816 10819 10821 10829 10836 10834 10830 10828 10826 10821 10821 10826 10830 10834 10838 10840 10840 10839 10841 10843 10841 10841 10849 10855 10858 10860 10861 10860 10862 10866 10866 10867 10871 10872 10873 10874 10874 10874 10876 10875 10875 10877 10880 10882 10884 10888 10890 10892 10898 10905 10911 10916 10918 10919 10922 10925 10927 10930 10933 10938 10942 10944 10945 10946 10948 10951 10953 10955 10957 10959 10961 10962 10964 10965 10966 10967
10798 10798 10797 10796 10797 10801 10801 10799 10799 10801 10802 10803 10806 10809 10816 10824 10825 10821 10819 10819 10815 10812 10810 10812 10820 10827 10830 10832 10835 10834 10832 10834 10834 10832 10839 10847 10851 10853 10855 10854 10855 10858 10860 10862 10864 10866 10868 10870 10869 10868 10870 10872 10872 10872 10874 10877 10880 10883 10884 10887 10895 10901 10905 10908 10911 10914 10914 10916 10922 10927 10930 10933 10936 10939 10940 10940 10944 10947 10949 10951 10953 10956 10958 10959 10961 10962 10963 10964
10787 10786 10784 10783 10785 10787 10789 10790 10788 10788 10791 10793 10795 10802 10810 10813 10810 10808 10809 10807 10805 10804 10801 10801 10808 10816 10819 10821 10825 10829 10827 10825 10824 10824 10830 10838 10844 10846 10848 10849 10848 10849 10853 10855 10855 10858 10862 10865 10864 10863 10865 10868 10869 10868 10868 10873 10875 10875 10877 10884 10888 10888 10890 10894 10901 10905 10905 10909 10919 10923 10924 10928 10931 10934 10936 10936 10940 10944 10945 10947 10949 10951 10954 10956 10958 10958 10959 10960
10775 10774 10769 10769 10773 10774 10776 10779 10778 10777 10779 10781 10787 10796 10799 10798 10797 10797 10797 10795 10794 10793 10794 10796 10798 10801 10806 10809 10811 10817 10820 10818 10816 10817 10821 10827 10834 10840 10841 10841 10842 10843 10845 10846 10848 10850 10854 10857 10859 10860 10861 10862 10864 10864 10865 10868 10869 10869 10874 10876 10874 10874 10879 10886 10893 10898 10900 10908 10917 10919 10919 10922 10925 10930 10932 10932 10937 10940 10941 10943 10945 10947 10950 10953 10954 10954 10954 10955
10763 10762 10755 10752 10758 10762 10764 10766 10765 10764 10765 10769 10778 10784 10785 10785 10785 10785 10784 10783 10783 10782 10785 10790 10790 10788 10791 10797 10800 10801 10804 10808 10811 10810 10812 10816 10824 10831 10833 10834 10835 10836 10836 10836 10841 10843 10844 10849 10853 10854 10857 10857 10856 10860 10864 10863 10862 10864 10867 10866 10864 10869 10875 10880 10886 10892 10897 10906 10912 10911 10912 10915 10922 10928 10928 10927 10932 10935 10936 10938 10940 10942 10946 10948 10949 10950 10950 10950
10750 10750 10741 10736 10742 10748 10751 10752 10751 10750 10751 10757 10766 10769 10769 10771 10771 10771 10771 10771 10772 10772 10775 10780 10780 10778 10779 10783 10788 10789 10787 10792 10799 10802 10804 10808 10815 10820 10824 10826 10828 10829 10829 10828 10832 10835 10835 10840 10845 10847 10851 10852 10852 10857 10861 10859 10856 10855 10858 10861 10862 10866 10870 10871 10877 10885 10891 10897 10902 10903 10905 10911 10919 10923 10922 10922 10926 10928 10929 10932 10935 10937 10940 10942 10943 10946 10947 10946
10736 10736 10728 10722 10727 10731 10734 10736 10737 10738 10739 10744 10750 10751 10753 10756 10755 10757 10758 10758 10758 10760 10764 10767 10766 10768 10773 10772 10773 10776 10775 10776 10781 10788 10794 10800 10805 10810 10813 10817 10820 10821 10821 10821 10824 10826 10827 10832 10837 10837 10841 10846 10851 10854 10854 10852 10851 10850 10851 10856 10859 10861 10862 10863 10867 10876 10883 10889 10894 10897 10902 10910 10915 10915 10914 10916 10918 10920 10922 10925 10929 10932 10934 10936 10938 10942 10944 10943
10721 10722 10715 10706 10709 10715 10717 10720 10724 10725 10726 10730 10733 10734 10736 10739 10739 10741 10742 10742 10745 10747 10749 10752 10753 10757 10763 10762 10762 10763 10762 10763 10767 10772 10780 10789 10795 10800 10803 10807 10811 10812 10812 10815 10818 10818 10818 10823 10828 10829 10832 10840 10846 10847 10846 10846 10846 10846 10846 10850 10853 10855 10855 10857 10862 10870 10875 10882 10887 10888 10895 10905 10908 10906 10906 10908 10910 10913 10916 10918 10923 10925 10927 10930 10933 10936 10940 10940
10705 10708 10701 10687 10689 10700 10702 10704 10709 10709 10710 10716 10717 10716 10719 10721 10723 10725 10725 10725 10730 10733 10731 10734 10741 10745 10746 10749 10752 10750 10747 10750 10755 10759 10766 10774 10782 10789 10793 10794 10798 10802 10804 10808 10812 10813 10809 10810 10819 10825 10826 10830 10835 10839 10843 10843 10840 10841 10844 10846 10846 10848 10851 10854 10859 10861 10862 10870 10876 10876 10884 10898 10901 10898 10898 10901 10903 10906 10908 10913 10917 10918 10920 10923 10926 10930 10935 10935
10689 10693 10685 10669 10669 10681 10686 10690 10693 10689 10692 10700 10700 10698 10703 10706 10708 10711 10711 10710 10713 10715 10714 10718 10725 10727 10729 10733 10735 10734 10733 10735 10744 10751 10753 10759 10767 10776 10780 10781 10784 10790 10795 10800 10804 10806 10804 10802 10809 10817 10819 10820 10824 10830 10837 10840 10837 10837 10842 10842 10839 10842 10847 10848 10850 10850 10851 10859 10866 10867 10878 10892 10896 10893 10892 10894 10897 10897 10900 10906 10910 10911 10914 10916 10918 10922 10927 10930
10672 10674 10668 10652 10648 10660 10668 10673 10675 10668 10671 10680 10682 10684 10687 10689 10693 10695 10694 10695 10697 10698 10699 10703 10707 10708 10710 10714 10714 10718 10722 10722 10731 10741 10741 10744 10754 10760 10765 10770 10772 10775 10783 10791 10794 10796 10799 10800 10800 10805 10812 10815 10816 10821 10830 10835 10835 10834 10835 10835 10833 10835 10838 10838 10841 10842 10846 10854 10859 10861 10873 10886 10889 10888 10886 10887 10889 10889 10892 10900 10903 10904 10907 10908 10910 10913 10919 10925
10653 10655 10650 10635 10629 10638 10647 10653 10654 10649 10651 10657 10662 10669 10672 10672 10676 10677 10677 10680 10683 10683 10683 10687 10692 10691 10689 10691 10695 10704 10711 10710 10716 10726 10728 10733 10743 10746 10748 10755 10760 10763 10770 10780 10784 10784 10789 10795 10795 10795 10804 10810 10811 10813 10817 10821 10825 10827 10827 10828 10828 10827 10828 10831 10833 10836 10843 10850 10850 10853 10865 10875 10879 10881 10879 10879 10882 10884 10888 10893 10895 10897 10899 10901 10904 10906 10910 10917
10632 10635 10630 10618 10612 10617 10624 10629 10630 10628 10630 10635 10641 10650 10656 10657 10660 10659 10660 10664 10665 10663 10665 10672 10677 10673 10669 10673 10682 10692 10697 10694 10698 10709 10715 10720 10729 10732 10732 10738 10747 10753 10759 10766 10771 10772 10775 10783 10790 10793 10796 10801 10804 10804 10804 10805 10812 10821 10823 10823 10823 10821 10822 10824 10827 10833 10842 10844 10843 10848 10856 10861 10867 10872 10871 10871 10874 10878 10882 10884 10885 10888 10892 10894 10898 10901 10903 10908
10609 10612 10608 10600 10597 10598 10599 10603 10604 10604 10608 10613 10618 10627 10636 10640 10641 10640 10640 10641 10642 10643 10647 10654 10658 10654 10654 10662 10669 10675 10680 10679 10681 10691 10699 10707 10716 10721 10722 10727 10734 10741 10748 10754 10758 10760 10761 10768 10782 10790 10790 10791 10794 10795 10794 10794 10801 10812 10817 10818 10818 10816 10817 10819 10824 10832 10834 10831 10837 10845 10846 10848 10857 10863 10862 10863 10866 10869 10872 10873 10875 10879 10883 10885 10889 10895 10898 10900
10583 10586 10584 10581 10581 10580 10577 10575 10576 10579 10583 10588 10592 10602 10614 10620 10619 10619 10618 10616 10618 10622 10627 10633 10636 10637 10643 10649 10652 10657 10664 10666 10668 10673 10682 10694 10707 10713 10714 10716 10719 10724 10733 10742 10744 10745 10747 10756 10769 10778 10782 10783 10784 10785 10787 10786 10790 10799 10807 10812 10813 10811 10812 10816 10822 10827 10823 10821 10833 10839 10833 10836 10848 10853 10853 10855 10857 10859 10861 10862 10865 10871 10875 10876 10881 10888 10892 10893
10555 10557 10557 10556 10558 10559 10555 10551 10548 10549 10555 10562 10566 10573 10586 10595 10594 10593 10594 10593 10594 10598 10605 10611 10614 10619 10628 10633 10634 10638 10645 10652 10654 10657 10667 10683 10696 10702 10703 10702 10704 10708 10718 10728 10729 10729 10736 10746 10754 10763 10771 10775 10776 10778 10781 10779 10780 10787 10795 10803 10807 10807 10808 10811 10815 10819 10816 10816 10825 10827 10823 10829 10840 10844 10844 10844 10846 10850 10853 10853 10858 10866 10868 10866 10872 10881 10884 10885
10526 10526 10528 10528 10530 10531 10530 10527 10523 10521 10525 10534 10538 10542 10552 10563 10567 10567 10567 10569 10570 10573 10579 10586 10593 10601 10609 10614 10616 10619 10625 10635 10642 10646 10655 10670 10682 10688 10689 10690 10691 10693 10701 10712 10713 10713 10722 10733 10742 10749 10757 10764 10770 10772 10772 10772 10773 10776 10782 10793 10801 10803 10804 10804 10806 10809 10810 10812 10817 10817 10817 10826 10833 10835 10835 10832 10834 10840 10844 10847 10852 10860 10861 10859 10863 10872 10875 10876
10497 10496 10496 10498 10500 10501 10500 10499 10498 10496 10498 10502 10507 10511 10518 10527 10534 10538 10541 10543 10545 10549 10552 10559 10571 10582 10587 10591 10595 10600 10607 10617 10627 10634 10643 10655 10667 10674 10676 10678 10679 10678 10684 10695 10698 10697 10705 10719 10730 10735 10740 10753 10763 10764 10763 10764 10763 10764 10774 10788 10795 10794 10794 10797 10799 10802 10804 10808 10808 10808 10814 10822 10822 10820 10822 10823 10824 10828 10835 10841 10845 10850 10853 10853 10855 10862 10867 10870
10467 10466 10464 10467 10470 10470 10468 10469 10469 10469 10470 10471 10474 10480 10486 10493 10499 10505 10511 10514 10517 10522 10525 10531 10546 10557 10560 10564 10570 10577 10585 10596 10607 10618 10629 10640 10651 10659 10664 10665 10665 10665 10669 10675 10681 10684 10690 10703 10714 10718 10728 10743 10750 10753 10755 10751 10748 10760 10777 10783 10780 10780 10784 10790 10794 10797 10798 10798 10797 10801 10810 10813 10807 10803 10809 10817 10819 10819 10825 10832 10835 10838 10843 10847 10849 10852 10858 10864